Time,TemperatureF,DewpointF,PressureIn,WindDirection,WindDirectionDegrees,WindSpeedMPH,WindSpeedGustMPH,Humidity,HourlyPrecipIn,Conditions,Clouds,dailyrainin,SoftwareType,DateUTC
2013-05-02 00:01:00,67.9,58.3,30.16,East,87,2.0,3.0,71,0.00,,,0.00,WUHU216DAVISVP2,2013-05-02 04:01:00,
2013-05-02 00:06:00,68.1,58.1,30.16,East,91,2.0,4.0,70,0.00,,,0.00,WUHU216DAVISVP2,2013-05-02 04:06:00,
2013-05-02 00:19:00,68.6,58.2,30.16,East,91,2.0,5.0,69,0.00,,,0.00,WUHU216DAVISVP2,2013-05-02 04:19:00,
2013-05-02 00:24:00,68.2,57.8,30.16,East,94,3.0,5.0,69,0.00,,,0.00,WUHU216DAVISVP2,2013-05-02 04:24:00,
2013-05-02 00:29:00,67.9,57.9,30.16,East,92,4.0,4.0,70,0.00,,,0.00,WUHU216DAVISVP2,2013-05-02 04:29:00,
2013-05-02 00:41:00,68.1,57.7,30.16,East,94,3.0,5.0,69,0.00,,,0.00,WUHU216DAVISVP2,2013-05-02 04:41:00,
2013-05-02 00:46:00,68.3,57.5,30.16,East,98,4.0,5.0,68,0.00,,,0.00,WUHU216DAVISVP2,2013-05-02 04:46:00,
2013-05-02 00:51:00,68.5,57.7,30.16,ESE,102,5.0,6.0,68,0.00,,,0.00,WUHU216DAVISVP2,2013-05-02 04:51:00,
2013-05-02 01:03:00,68.6,57.4,30.16,East,94,4.0,5.0,67,0.00,,,0.00,WUHU216DAVISVP2,2013-05-02 05:03:00,
2013-05-02 01:08:00,68.6,57.4,30.16,East,95,3.0,5.0,67,0.00,,,0.00,WUHU216DAVISVP2,2013-05-02 05:08:00,
2013-05-02 01:13:00,68.4,57.6,30.16,East,96,4.0,5.0,68,0.00,,,0.00,WUHU216DAVISVP2,2013-05-02 05:13:00,
2013-05-02 01:25:00,68.4,57.2,30.16,East,86,3.0,5.0,67,0.00,,,0.00,WUHU216DAVISVP2,2013-05-02 05:25:00,
2013-05-02 01:30:00,68.3,57.5,30.16,East,92,3.0,5.0,68,0.00,,,0.00,WUHU216DAVISVP2,2013-05-02 05:30:00,
2013-05-02 01:35:00,68.3,57.1,30.16,East,88,4.0,5.0,67,0.00,,,0.00,WUHU216DAVISVP2,2013-05-02 05:35:00,
2013-05-02 01:47:00,67.3,56.9,30.16,ESE,109,3.0,5.0,69,0.00,,,0.00,WUHU216DAVISVP2,2013-05-02 05:47:00,
2013-05-02 01:52:00,67.1,57.2,30.16,East,99,4.0,4.0,70,0.00,,,0.00,WUHU216DAVISVP2,2013-05-02 05:52:00,
2013-05-02 01:57:00,67.2,57.2,30.16,East,101,3.0,4.0,70,0.00,,,0.00,WUHU216DAVISVP2,2013-05-02 05:57:00,
2013-05-02 02:09:00,67.1,57.0,30.16,East,94,4.0,5.0,70,0.00,,,0.00,WUHU216DAVISVP2,2013-05-02 06:09:00,
2013-05-02 02:14:00,67.0,56.9,30.16,ESE,102,3.0,5.0,70,0.00,,,0.00,WUHU216DAVISVP2,2013-05-02 06:14:00,
2013-05-02 02:31:00,66.9,56.8,30.15,East,89,3.0,5.0,70,0.00,,,0.00,WUHU216DAVISVP2,2013-05-02 06:31:00,
2013-05-02 02:36:00,66.7,56.6,30.15,ESE,107,5.0,5.0,70,0.00,,,0.00,WUHU216DAVISVP2,2013-05-02 06:36:00,
2013-05-02 02:41:00,66.6,56.5,30.15,East,95,3.0,6.0,70,0.00,,,0.00,WUHU216DAVISVP2,2013-05-02 06:41:00,
2013-05-02 02:53:00,66.4,56.9,30.15,East,97,3.0,5.0,71,0.00,,,0.00,WUHU216DAVISVP2,2013-05-02 06:53:00,
2013-05-02 02:58:00,66.3,56.8,30.15,ESE,106,3.0,6.0,71,0.00,,,0.00,WUHU216DAVISVP2,2013-05-02 06:58:00,
2013-05-02 03:14:00,65.9,56.8,30.14,East,94,3.0,6.0,72,0.00,,,0.00,WUHU216DAVISVP2,2013-05-02 07:14:00,
2013-05-02 03:19:00,65.8,56.7,30.14,East,97,4.0,6.0,72,0.00,,,0.00,WUHU216DAVISVP2,2013-05-02 07:19:00,
2013-05-02 03:24:00,65.8,56.7,30.14,East,91,3.0,8.0,72,0.00,,,0.00,WUHU216DAVISVP2,2013-05-02 07:24:00,
2013-05-02 03:36:00,65.7,56.6,30.14,ESE,102,2.0,7.0,72,0.00,,,0.00,WUHU216DAVISVP2,2013-05-02 07:36:00,
2013-05-02 03:41:00,65.6,56.5,30.14,ESE,116,3.0,7.0,72,0.00,,,0.00,WUHU216DAVISVP2,2013-05-02 07:41:00,
2013-05-02 03:46:00,65.4,56.3,30.14,ESE,103,2.0,5.0,72,0.00,,,0.00,WUHU216DAVISVP2,2013-05-02 07:46:00,
2013-05-02 03:58:00,65.0,56.3,30.14,ESE,112,2.0,5.0,73,0.00,,,0.00,WUHU216DAVISVP2,2013-05-02 07:58:00,
2013-05-02 04:03:00,64.9,56.2,30.14,East,85,3.0,4.0,73,0.00,,,0.00,WUHU216DAVISVP2,2013-05-02 08:03:00,
2013-05-02 04:08:00,64.7,56.3,30.14,East,98,3.0,4.0,74,0.00,,,0.00,WUHU216DAVISVP2,2013-05-02 08:08:00,
2013-05-02 04:20:00,64.5,56.2,30.14,East,86,4.0,4.0,74,0.00,,,0.00,WUHU216DAVISVP2,2013-05-02 08:20:00,
2013-05-02 04:25:00,64.5,56.2,30.14,East,95,5.0,5.0,74,0.00,,,0.00,WUHU216DAVISVP2,2013-05-02 08:25:00,
2013-05-02 04:30:00,64.6,56.3,30.14,East,88,3.0,6.0,74,0.00,,,0.00,WUHU216DAVISVP2,2013-05-02 08:30:00,
2013-05-02 04:42:00,63.3,55.7,30.14,ENE,67,3.0,5.0,76,0.00,,,0.00,WUHU216DAVISVP2,2013-05-02 08:42:00,
2013-05-02 04:47:00,63.0,55.8,30.14,ENE,75,3.0,5.0,77,0.00,,,0.00,WUHU216DAVISVP2,2013-05-02 08:47:00,
2013-05-02 04:52:00,62.9,55.7,30.15,ENE,67,4.0,4.0,77,0.00,,,0.00,WUHU216DAVISVP2,2013-05-02 08:52:00,
2013-05-02 05:04:00,63.5,56.3,30.15,East,81,4.0,5.0,77,0.00,,,0.00,WUHU216DAVISVP2,2013-05-02 09:04:00,
2013-05-02 05:09:00,63.2,56.0,30.15,East,82,3.0,5.0,77,0.00,,,0.00,WUHU216DAVISVP2,2013-05-02 09:09:00,
2013-05-02 05:26:00,63.0,56.1,30.14,East,94,4.0,6.0,78,0.00,,,0.00,WUHU216DAVISVP2,2013-05-02 09:26:00,
2013-05-02 05:31:00,63.1,56.2,30.14,East,92,5.0,8.0,78,0.00,,,0.00,WUHU216DAVISVP2,2013-05-02 09:31:00,
2013-05-02 05:36:00,63.0,56.1,30.14,East,91,4.0,8.0,78,0.00,,,0.00,WUHU216DAVISVP2,2013-05-02 09:36:00,
2013-05-02 05:48:00,62.8,55.9,30.14,East,94,5.0,8.0,78,0.00,,,0.00,WUHU216DAVISVP2,2013-05-02 09:48:00,
2013-05-02 05:53:00,62.7,55.8,30.14,ESE,102,5.0,7.0,78,0.00,,,0.00,WUHU216DAVISVP2,2013-05-02 09:53:00,
2013-05-02 05:58:00,62.5,56.0,30.14,East,94,4.0,7.0,79,0.00,,,0.00,WUHU216DAVISVP2,2013-05-02 09:58:00,
2013-05-02 06:10:00,62.0,55.8,30.14,East,96,3.0,6.0,80,0.00,,,0.00,WUHU216DAVISVP2,2013-05-02 10:10:00,
2013-05-02 06:15:00,61.8,55.6,30.14,ESE,105,2.0,6.0,80,0.00,,,0.00,WUHU216DAVISVP2,2013-05-02 10:15:00,
2013-05-02 06:20:00,61.6,55.4,30.14,ESE,104,2.0,5.0,80,0.00,,,0.00,WUHU216DAVISVP2,2013-05-02 10:20:00,
2013-05-02 06:32:00,61.4,55.6,30.14,East,94,4.0,5.0,81,0.00,,,0.00,WUHU216DAVISVP2,2013-05-02 10:32:00,
2013-05-02 06:37:00,61.4,55.6,30.14,ESE,102,4.0,6.0,81,0.00,,,0.00,WUHU216DAVISVP2,2013-05-02 10:37:00,
2013-05-02 06:54:00,61.6,55.8,30.15,ESE,103,3.0,7.0,81,0.00,,,0.00,WUHU216DAVISVP2,2013-05-02 10:54:00,
2013-05-02 06:59:00,61.7,55.9,30.15,East,101,3.0,6.0,81,0.00,,,0.00,WUHU216DAVISVP2,2013-05-02 10:59:00,
2013-05-02 07:04:00,61.7,55.9,30.15,ESE,105,4.0,6.0,81,0.00,,,0.00,WUHU216DAVISVP2,2013-05-02 11:04:00,
2013-05-02 07:16:00,62.0,55.8,30.15,East,95,6.0,7.0,80,0.00,,,0.00,WUHU216DAVISVP2,2013-05-02 11:16:00,
2013-05-02 07:21:00,62.2,56.0,30.15,ESE,103,5.0,7.0,80,0.00,,,0.00,WUHU216DAVISVP2,2013-05-02 11:21:00,
2013-05-02 07:25:00,62.5,56.3,30.15,East,95,5.0,8.0,80,0.00,,,0.00,WUHU216DAVISVP2,2013-05-02 11:25:00,
2013-05-02 07:37:00,63.2,56.7,30.16,East,84,5.0,7.0,79,0.00,,,0.00,WUHU216DAVISVP2,2013-05-02 11:37:00,
2013-05-02 07:42:00,63.5,56.9,30.16,East,91,2.0,6.0,79,0.00,,,0.00,WUHU216DAVISVP2,2013-05-02 11:42:00,
2013-05-02 07:47:00,63.7,57.1,30.16,East,100,3.0,5.0,79,0.00,,,0.00,WUHU216DAVISVP2,2013-05-02 11:47:00,
2013-05-02 07:59:00,63.7,56.8,30.16,ESE,113,4.0,6.0,78,0.00,,,0.00,WUHU216DAVISVP2,2013-05-02 11:59:00,
2013-05-02 08:04:00,64.1,57.2,30.16,ESE,115,5.0,7.0,78,0.00,,,0.00,WUHU216DAVISVP2,2013-05-02 12:04:00,
2013-05-02 08:21:00,65.3,56.8,30.17,SE,127,7.0,11.0,74,0.00,,,0.00,WUHU216DAVISVP2,2013-05-02 12:21:00,
2013-05-02 08:26:00,65.5,56.6,30.16,ESE,113,7.0,11.0,73,0.00,,,0.00,WUHU216DAVISVP2,2013-05-02 12:26:00,
2013-05-02 08:31:00,65.8,56.9,30.16,SE,139,6.0,11.0,73,0.00,,,0.00,WUHU216DAVISVP2,2013-05-02 12:31:00,
2013-05-02 08:43:00,66.4,56.7,30.17,SSE,158,8.0,13.0,71,0.00,,,0.00,WUHU216DAVISVP2,2013-05-02 12:43:00,
2013-05-02 08:48:00,66.5,56.8,30.17,SE,129,7.0,13.0,71,0.00,,,0.00,WUHU216DAVISVP2,2013-05-02 12:48:00,
2013-05-02 08:53:00,66.6,56.9,30.17,SE,127,10.0,13.0,71,0.00,,,0.00,WUHU216DAVISVP2,2013-05-02 12:53:00,
2013-05-02 09:05:00,67.2,57.1,30.17,SSE,148,6.0,12.0,70,0.00,,,0.00,WUHU216DAVISVP2,2013-05-02 13:05:00,
2013-05-02 09:10:00,67.6,57.6,30.17,SSE,151,9.0,12.0,70,0.00,,,0.00,WUHU216DAVISVP2,2013-05-02 13:10:00,
2013-05-02 09:15:00,67.9,57.5,30.18,SE,139,7.0,12.0,69,0.00,,,0.00,WUHU216DAVISVP2,2013-05-02 13:15:00,
2013-05-02 09:27:00,68.1,57.3,30.18,SE,135,7.0,14.0,68,0.00,,,0.00,WUHU216DAVISVP2,2013-05-02 13:27:00,
2013-05-02 09:32:00,67.9,57.1,30.18,SSE,148,8.0,14.0,68,0.00,,,0.00,WUHU216DAVISVP2,2013-05-02 13:32:00,
2013-05-02 09:49:00,68.1,57.3,30.18,SSE,150,10.0,11.0,68,0.00,,,0.00,WUHU216DAVISVP2,2013-05-02 13:49:00,
2013-05-02 09:54:00,68.4,58.0,30.18,SSE,147,8.0,11.0,69,0.00,,,0.00,WUHU216DAVISVP2,2013-05-02 13:54:00,
2013-05-02 09:59:00,68.7,57.5,30.18,SE,141,13.0,13.0,67,0.00,,,0.00,WUHU216DAVISVP2,2013-05-02 13:59:00,
2013-05-02 10:11:00,69.7,58.4,30.18,SE,129,10.0,13.0,67,0.00,,,0.00,WUHU216DAVISVP2,2013-05-02 14:11:00,
2013-05-02 10:16:00,70.0,57.9,30.18,SE,129,9.0,14.0,65,0.00,,,0.00,WUHU216DAVISVP2,2013-05-02 14:16:00,
2013-05-02 10:21:00,70.2,58.1,30.18,SSE,160,11.0,14.0,65,0.00,,,0.00,WUHU216DAVISVP2,2013-05-02 14:21:00,
2013-05-02 10:33:00,70.5,57.9,30.18,SE,144,5.0,13.0,64,0.00,,,0.00,WUHU216DAVISVP2,2013-05-02 14:33:00,
2013-05-02 10:38:00,70.6,58.0,30.18,South,176,11.0,13.0,64,0.00,,,0.00,WUHU216DAVISVP2,2013-05-02 14:38:00,
2013-05-02 10:55:00,71.2,58.2,30.18,ESE,117,8.0,13.0,63,0.00,,,0.00,WUHU216DAVISVP2,2013-05-02 14:55:00,
2013-05-02 11:00:00,71.6,57.4,30.18,SE,130,6.0,13.0,61,0.00,,,0.00,WUHU216DAVISVP2,2013-05-02 15:00:00,
2013-05-02 11:16:00,72.7,57.5,30.17,SE,133,7.0,13.0,59,0.00,,,0.00,WUHU216DAVISVP2,2013-05-02 15:16:00,
2013-05-02 11:21:00,72.7,58.0,30.17,SE,143,6.0,13.0,60,0.00,,,0.00,WUHU216DAVISVP2,2013-05-02 15:21:00,
2013-05-02 11:38:00,74.1,59.0,30.17,ESE,117,7.0,13.0,59,0.00,,,0.00,WUHU216DAVISVP2,2013-05-02 15:38:00,
2013-05-02 11:43:00,74.8,58.2,30.17,SE,129,6.0,13.0,56,0.00,,,0.00,WUHU216DAVISVP2,2013-05-02 15:43:00,
2013-05-02 11:48:00,74.9,57.8,30.17,SSE,153,8.0,13.0,55,0.00,,,0.00,WUHU216DAVISVP2,2013-05-02 15:48:00,
2013-05-02 12:00:00,75.2,59.1,30.16,SSE,148,6.0,11.0,57,0.00,,,0.00,WUHU216DAVISVP2,2013-05-02 16:00:00,
2013-05-02 12:05:00,75.6,58.5,30.16,SE,124,4.0,11.0,55,0.00,,,0.00,WUHU216DAVISVP2,2013-05-02 16:05:00,
2013-05-02 12:10:00,75.8,58.6,30.17,ESE,123,7.0,11.0,55,0.00,,,0.00,WUHU216DAVISVP2,2013-05-02 16:10:00,
2013-05-02 12:22:00,75.4,58.8,30.16,SE,127,8.0,10.0,56,0.00,,,0.00,WUHU216DAVISVP2,2013-05-02 16:22:00,
2013-05-02 12:27:00,75.6,57.9,30.16,South,180,2.0,13.0,54,0.00,,,0.00,WUHU216DAVISVP2,2013-05-02 16:27:00,
2013-05-02 12:44:00,76.2,57.4,30.16,East,90,5.0,11.0,52,0.00,,,0.00,WUHU216DAVISVP2,2013-05-02 16:44:00,
2013-05-02 12:49:00,76.2,58.0,30.16,SE,143,9.0,12.0,53,0.00,,,0.00,WUHU216DAVISVP2,2013-05-02 16:49:00,
2013-05-02 12:54:00,76.4,56.5,30.15,ESE,123,7.0,12.0,50,0.00,,,0.00,WUHU216DAVISVP2,2013-05-02 16:54:00,
2013-05-02 13:06:00,76.5,56.0,30.15,SE,143,8.0,11.0,49,0.00,,,0.00,WUHU216DAVISVP2,2013-05-02 17:06:00,
2013-05-02 13:11:00,76.8,55.7,30.15,East,98,8.0,11.0,48,0.00,,,0.00,WUHU216DAVISVP2,2013-05-02 17:11:00,
2013-05-02 13:16:00,76.9,56.4,30.15,SE,129,5.0,11.0,49,0.00,,,0.00,WUHU216DAVISVP2,2013-05-02 17:16:00,
2013-05-02 13:28:00,78.0,56.2,30.14,SE,141,2.0,12.0,47,0.00,,,0.00,WUHU216DAVISVP2,2013-05-02 17:28:00,
2013-05-02 13:33:00,78.4,57.2,30.14,ESE,117,4.0,12.0,48,0.00,,,0.00,WUHU216DAVISVP2,2013-05-02 17:33:00,
2013-05-02 13:50:00,78.0,55.6,30.14,ESE,120,6.0,12.0,46,0.00,,,0.00,WUHU216DAVISVP2,2013-05-02 17:50:00,
2013-05-02 13:55:00,78.1,55.7,30.14,ESE,114,13.0,13.0,46,0.00,,,0.00,WUHU216DAVISVP2,2013-05-02 17:55:00,
2013-05-02 14:12:00,77.6,55.2,30.14,ESE,105,7.0,14.0,46,0.00,,,0.00,WUHU216DAVISVP2,2013-05-02 18:12:00,
2013-05-02 14:17:00,77.6,56.4,30.14,SSE,156,4.0,13.0,48,0.00,,,0.00,WUHU216DAVISVP2,2013-05-02 18:17:00,
2013-05-02 14:34:00,78.1,57.5,30.13,SSE,160,7.0,11.0,49,0.00,,,0.00,WUHU216DAVISVP2,2013-05-02 18:34:00,
2013-05-02 14:39:00,78.3,55.8,30.13,ESE,105,7.0,12.0,46,0.00,,,0.00,WUHU216DAVISVP2,2013-05-02 18:39:00,
2013-05-02 14:56:00,77.9,56.1,30.13,ESE,122,7.0,14.0,47,0.00,,,0.00,WUHU216DAVISVP2,2013-05-02 18:56:00,
2013-05-02 15:01:00,78.4,56.6,30.12,SSE,160,8.0,14.0,47,0.00,,,0.00,WUHU216DAVISVP2,2013-05-02 19:01:00,
2013-05-02 15:06:00,78.4,56.6,30.12,ESE,105,6.0,14.0,47,0.00,,,0.00,WUHU216DAVISVP2,2013-05-02 19:06:00,
2013-05-02 15:18:00,78.1,56.3,30.12,East,96,10.0,14.0,47,0.00,,,0.00,WUHU216DAVISVP2,2013-05-02 19:18:00,
2013-05-02 15:23:00,78.0,56.2,30.12,SSE,158,4.0,14.0,47,0.00,,,0.00,WUHU216DAVISVP2,2013-05-02 19:23:00,
2013-05-02 15:28:00,78.0,56.2,30.11,East,96,11.0,14.0,47,0.00,,,0.00,WUHU216DAVISVP2,2013-05-02 19:28:00,
2013-05-02 15:39:00,78.2,57.0,30.11,East,90,13.0,14.0,48,0.00,,,0.00,WUHU216DAVISVP2,2013-05-02 19:39:00,
2013-05-02 15:44:00,78.5,57.2,30.11,East,85,5.0,14.0,48,0.00,,,0.00,WUHU216DAVISVP2,2013-05-02 19:44:00,
2013-05-02 16:01:00,77.2,57.8,30.10,East,84,11.0,15.0,51,0.00,,,0.00,WUHU216DAVISVP2,2013-05-02 20:01:00,
2013-05-02 16:06:00,77.2,56.0,30.10,East,95,9.0,15.0,48,0.00,,,0.00,WUHU216DAVISVP2,2013-05-02 20:06:00,
2013-05-02 16:11:00,77.2,56.0,30.10,East,89,4.0,15.0,48,0.00,,,0.00,WUHU216DAVISVP2,2013-05-02 20:11:00,
2013-05-02 16:23:00,77.8,56.0,30.09,East,94,8.0,15.0,47,0.00,,,0.00,WUHU216DAVISVP2,2013-05-02 20:23:00,
2013-05-02 16:28:00,77.9,57.3,30.09,ESE,104,12.0,14.0,49,0.00,,,0.00,WUHU216DAVISVP2,2013-05-02 20:28:00,
2013-05-02 16:33:00,78.0,56.8,30.09,ESE,102,12.0,16.0,48,0.00,,,0.00,WUHU216DAVISVP2,2013-05-02 20:33:00,
2013-05-02 16:45:00,77.9,57.9,30.09,East,81,14.0,17.0,50,0.00,,,0.00,WUHU216DAVISVP2,2013-05-02 20:45:00,
2013-05-02 16:50:00,78.0,56.8,30.09,ESE,102,11.0,17.0,48,0.00,,,0.00,WUHU216DAVISVP2,2013-05-02 20:50:00,
2013-05-02 16:55:00,78.2,57.0,30.09,East,92,9.0,17.0,48,0.00,,,0.00,WUHU216DAVISVP2,2013-05-02 20:55:00,
2013-05-02 17:07:00,78.0,56.8,30.08,SE,129,11.0,19.0,48,0.00,,,0.00,WUHU216DAVISVP2,2013-05-02 21:07:00,
2013-05-02 17:12:00,78.0,55.6,30.08,East,84,10.0,18.0,46,0.00,,,0.00,WUHU216DAVISVP2,2013-05-02 21:12:00,
2013-05-02 17:17:00,77.6,57.0,30.08,ESE,117,17.0,18.0,49,0.00,,,0.00,WUHU216DAVISVP2,2013-05-02 21:17:00,
2013-05-02 17:29:00,76.7,55.6,30.08,East,86,9.0,20.0,48,0.00,,,0.00,WUHU216DAVISVP2,2013-05-02 21:29:00,
2013-05-02 17:34:00,76.6,55.5,30.08,East,84,11.0,20.0,48,0.00,,,0.00,WUHU216DAVISVP2,2013-05-02 21:34:00,
2013-05-02 17:51:00,76.1,56.8,30.08,ESE,104,9.0,17.0,51,0.00,,,0.00,WUHU216DAVISVP2,2013-05-02 21:51:00,
2013-05-02 17:56:00,76.2,56.9,30.08,East,97,10.0,17.0,51,0.00,,,0.00,WUHU216DAVISVP2,2013-05-02 21:56:00,
2013-05-02 18:01:00,76.1,56.2,30.08,ESE,109,13.0,16.0,50,0.00,,,0.00,WUHU216DAVISVP2,2013-05-02 22:01:00,
2013-05-02 18:13:00,75.9,56.6,30.08,ESE,108,10.0,18.0,51,0.00,,,0.00,WUHU216DAVISVP2,2013-05-02 22:13:00,
2013-05-02 18:18:00,76.0,57.8,30.08,ESE,113,13.0,18.0,53,0.00,,,0.00,WUHU216DAVISVP2,2013-05-02 22:18:00,
2013-05-02 18:23:00,75.6,56.9,30.07,ESE,104,13.0,19.0,52,0.00,,,0.00,WUHU216DAVISVP2,2013-05-02 22:23:00,
2013-05-02 18:35:00,74.6,56.5,30.07,ESE,120,13.0,22.0,53,0.00,,,0.00,WUHU216DAVISVP2,2013-05-02 22:35:00,
2013-05-02 18:40:00,74.4,56.8,30.07,ESE,104,14.0,22.0,54,0.00,,,0.00,WUHU216DAVISVP2,2013-05-02 22:40:00,
2013-05-02 18:57:00,73.8,56.3,30.07,East,94,18.0,22.0,54,0.00,,,0.00,WUHU216DAVISVP2,2013-05-02 22:57:00,
2013-05-02 19:02:00,73.7,56.2,30.07,East,100,11.0,22.0,54,0.00,,,0.00,WUHU216DAVISVP2,2013-05-02 23:02:00,
2013-05-02 19:07:00,73.5,55.4,30.07,ESE,104,16.0,21.0,53,0.00,,,0.00,WUHU216DAVISVP2,2013-05-02 23:07:00,
2013-05-02 19:18:00,73.2,55.7,30.07,ESE,102,14.0,18.0,54,0.00,,,0.00,WUHU216DAVISVP2,2013-05-02 23:18:00,
2013-05-02 19:23:00,73.0,55.5,30.07,ESE,108,11.0,18.0,54,0.00,,,0.00,WUHU216DAVISVP2,2013-05-02 23:23:00,
2013-05-02 19:28:00,72.6,55.1,30.07,ENE,75,10.0,16.0,54,0.00,,,0.00,WUHU216DAVISVP2,2013-05-02 23:28:00,
2013-05-02 19:40:00,71.8,54.9,30.07,ESE,116,15.0,17.0,55,0.00,,,0.00,WUHU216DAVISVP2,2013-05-02 23:40:00,
2013-05-02 19:45:00,71.6,54.7,30.07,ESE,113,10.0,17.0,55,0.00,,,0.00,WUHU216DAVISVP2,2013-05-02 23:45:00,
2013-05-02 20:02:00,71.1,55.3,30.08,ESE,107,9.0,14.0,57,0.00,,,0.00,WUHU216DAVISVP2,2013-05-03 00:02:00,
2013-05-02 20:07:00,70.8,55.0,30.08,East,89,6.0,10.0,57,0.00,,,0.00,WUHU216DAVISVP2,2013-05-03 00:07:00,
2013-05-02 20:24:00,69.7,55.8,30.08,ESE,104,6.0,8.0,61,0.00,,,0.00,WUHU216DAVISVP2,2013-05-03 00:24:00,
2013-05-02 20:29:00,69.4,55.5,30.08,ESE,104,5.0,9.0,61,0.00,,,0.00,WUHU216DAVISVP2,2013-05-03 00:29:00,
2013-05-02 20:34:00,69.1,55.7,30.08,East,99,7.0,9.0,62,0.00,,,0.00,WUHU216DAVISVP2,2013-05-03 00:34:00,
2013-05-02 20:46:00,68.4,55.9,30.08,East,101,5.0,9.0,64,0.00,,,0.00,WUHU216DAVISVP2,2013-05-03 00:46:00,
2013-05-02 20:51:00,68.0,56.0,30.08,East,99,5.0,9.0,65,0.00,,,0.00,WUHU216DAVISVP2,2013-05-03 00:51:00,
2013-05-02 21:08:00,67.1,55.5,30.08,East,101,4.0,6.0,66,0.00,,,0.00,WUHU216DAVISVP2,2013-05-03 01:08:00,
2013-05-02 21:13:00,66.9,55.3,30.08,ESE,102,4.0,6.0,66,0.00,,,0.00,WUHU216DAVISVP2,2013-05-03 01:13:00,
2013-05-02 21:18:00,66.8,55.3,30.08,ESE,103,3.0,6.0,66,0.00,,,0.00,WUHU216DAVISVP2,2013-05-03 01:18:00,
2013-05-02 21:30:00,66.4,55.3,30.08,ENE,74,2.0,6.0,67,0.00,,,0.00,WUHU216DAVISVP2,2013-05-03 01:30:00,
2013-05-02 21:35:00,65.9,55.2,30.08,ENE,78,3.0,5.0,68,0.00,,,0.00,WUHU216DAVISVP2,2013-05-03 01:35:00,
2013-05-02 21:52:00,64.7,55.2,30.08,East,82,3.0,5.0,71,0.00,,,0.00,WUHU216DAVISVP2,2013-05-03 01:52:00,
2013-05-02 21:57:00,64.5,55.4,30.08,East,85,2.0,5.0,72,0.00,,,0.00,WUHU216DAVISVP2,2013-05-03 01:57:00,
2013-05-02 22:02:00,64.3,55.2,30.08,East,91,2.0,4.0,72,0.00,,,0.00,WUHU216DAVISVP2,2013-05-03 02:02:00,
2013-05-02 22:14:00,64.3,55.2,30.09,ENE,71,3.0,4.0,72,0.00,,,0.00,WUHU216DAVISVP2,2013-05-03 02:14:00,
2013-05-02 22:19:00,64.4,55.3,30.09,ENE,71,2.0,5.0,72,0.00,,,0.00,WUHU216DAVISVP2,2013-05-03 02:19:00,
2013-05-02 22:24:00,64.2,55.1,30.09,ENE,63,2.0,5.0,72,0.00,,,0.00,WUHU216DAVISVP2,2013-05-03 02:24:00,
2013-05-02 22:36:00,63.3,55.0,30.09,ENE,71,1.0,3.0,74,0.00,,,0.00,WUHU216DAVISVP2,2013-05-03 02:36:00,
2013-05-02 22:41:00,63.2,55.3,30.09,ENE,69,2.0,3.0,75,0.00,,,0.00,WUHU216DAVISVP2,2013-05-03 02:41:00,
2013-05-02 22:46:00,62.8,55.2,30.09,ENE,78,2.0,3.0,76,0.00,,,0.00,WUHU216DAVISVP2,2013-05-03 02:46:00,
2013-05-02 22:58:00,62.1,55.2,30.09,East,85,1.0,2.0,78,0.00,,,0.00,WUHU216DAVISVP2,2013-05-03 02:58:00,
2013-05-02 23:03:00,62.1,55.2,30.08,East,94,2.0,3.0,78,0.00,,,0.00,WUHU216DAVISVP2,2013-05-03 03:03:00,
2013-05-02 23:08:00,62.4,55.1,30.08,East,101,3.0,4.0,77,0.00,,,0.00,WUHU216DAVISVP2,2013-05-03 03:08:00,
2013-05-02 23:20:00,63.0,55.1,30.08,East,94,1.0,4.0,75,0.00,,,0.00,WUHU216DAVISVP2,2013-05-03 03:20:00,
2013-05-02 23:25:00,62.9,55.3,30.08,East,81,1.0,4.0,76,0.00,,,0.00,WUHU216DAVISVP2,2013-05-03 03:25:00,
2013-05-02 23:41:00,62.3,55.1,30.08,ENE,65,2.0,2.0,77,0.00,,,0.00,WUHU216DAVISVP2,2013-05-03 03:41:00,
2013-05-02 23:46:00,61.7,54.9,30.08,ENE,70,2.0,2.0,78,0.00,,,0.00,WUHU216DAVISVP2,2013-05-03 03:46:00,
2013-05-02 23:51:00,61.5,55.0,30.08,ENE,71,2.0,3.0,79,0.00,,,0.00,WUHU216DAVISVP2,2013-05-03 03:51:00,